,,,PA_Meas_PMT16A,,PR_Meas_QMR101_102,,RH_Meas_QMH101,,SR_Meas_QMS101,,TA_Meas_QMH101,,GenWind,,GenWind,
date,time,status,PA,status,PR,status,RH,status,SR,status,TA,status,DirAvg,status,SpdAvg,
2008-07-19, 07:03:04,VALID,1003.86,VALID,0,VALID,88.1212,VALID,56.1141,VALID,24.9709,VALID,73,VALID,0.653125,
2008-07-19, 07:04:04,VALID,1003.84,VALID,0,VALID,87.9534,VALID,57.522,VALID,24.9904,VALID,88,VALID,0.879297,
2008-07-19, 07:05:04,VALID,1003.84,VALID,0,VALID,87.6329,VALID,58.8293,VALID,25.0079,VALID,83,VALID,0.792969,
2008-07-19, 07:06:04,VALID,1003.85,VALID,0,VALID,87.6787,VALID,60.2372,VALID,25.0488,VALID,58,VALID,0.795313,
2008-07-19, 07:07:04,VALID,1003.86,VALID,0,VALID,87.9305,VALID,61.5445,VALID,25.0682,VALID,67,VALID,0.598828,
2008-07-19, 07:08:04,VALID,1003.86,VALID,0,VALID,87.8084,VALID,63.053,VALID,25.0469,VALID,71,VALID,0.535937,
2008-07-19, 07:09:04,VALID,1003.89,VALID,0,VALID,87.7245,VALID,64.662,VALID,25.0682,VALID,78,VALID,0.772266,
2008-07-19, 07:10:04,VALID,1003.91,VALID,0,VALID,87.4956,VALID,66.0699,VALID,25.0877,VALID,89,VALID,1.07187,
2008-07-19, 07:11:04,VALID,1003.91,VALID,0,VALID,87.6635,VALID,67.5783,VALID,25.0858,VALID,77,VALID,0.366797,
2008-07-19, 07:12:04,VALID,1003.92,VALID,0,VALID,87.9076,VALID,68.9862,VALID,25.1267,VALID,101,VALID,0.330078,
2008-07-19, 07:13:04,VALID,1003.98,VALID,0,VALID,87.5795,VALID,70.8969,VALID,25.1267,VALID,118,VALID,0.815234,
2008-07-19, 07:14:04,VALID,1004.02,VALID,0,VALID,88.3195,VALID,72.707,VALID,25.1248,VALID,157,VALID,1.45352,
2008-07-19, 07:15:04,VALID,1004,VALID,0,VALID,88.3195,VALID,74.6177,VALID,25.1267,VALID,153,VALID,0.997656,
2008-07-19, 07:16:04,VALID,1004.04,VALID,0,VALID,88.7544,VALID,76.0256,VALID,25.0877,VALID,148,VALID,1.11914,
2008-07-19, 07:17:04,VALID,1004.03,VALID,0,VALID,88.8917,VALID,77.6346,VALID,25.0682,VALID,124,VALID,0.972266,
2008-07-19, 07:18:04,VALID,1004.04,VALID,0,VALID,89.1587,VALID,79.143,VALID,25.0877,VALID,101,VALID,1.33633,
2008-07-19, 07:19:04,VALID,1004.08,VALID,0,VALID,89.0672,VALID,80.5509,VALID,25.1072,VALID,107,VALID,1.1207,
2008-07-19, 07:20:04,VALID,1004.1,VALID,0,VALID,89.1435,VALID,81.7577,VALID,25.1072,VALID,103,VALID,0.91875,
2008-07-19, 07:21:04,VALID,1004.08,VALID,0,VALID,89.235,VALID,82.8639,VALID,25.1267,VALID,92,VALID,1.48438,
2008-07-19, 07:22:04,VALID,1004.13,VALID,0,VALID,89.4715,VALID,83.9701,VALID,25.1461,VALID,112,VALID,1.24922,
2008-07-19, 07:23:04,VALID,1004.16,VALID,0,VALID,89.5859,VALID,85.1768,VALID,25.1461,VALID,131,VALID,0.947656,
2008-07-19, 07:24:04,VALID,1004.15,VALID,0,VALID,89.7004,VALID,86.3836,VALID,25.1851,VALID,120,VALID,0.867969,
2008-07-19, 07:25:04,VALID,1004.17,VALID,0,VALID,89.6317,VALID,87.4898,VALID,25.1851,VALID,106,VALID,0.742578,
2008-07-19, 07:26:04,VALID,1004.2,VALID,0,VALID,89.9598,VALID,88.4954,VALID,25.224,VALID,127,VALID,0.585938,
2008-07-19, 07:27:04,VALID,1004.22,VALID,0,VALID,90.0437,VALID,89.1993,VALID,25.224,VALID,99,VALID,0.380078,
2008-07-19, 07:28:04,VALID,1004.25,VALID,0,VALID,89.9216,VALID,90.3055,VALID,25.2435,VALID,86,VALID,0.695313,
2008-07-19, 07:29:04,VALID,1004.24,VALID,0,VALID,90.0055,VALID,91.814,VALID,25.2435,VALID,122,VALID,0.691016,
2008-07-19, 07:30:04,VALID,1004.25,VALID,0,VALID,89.9369,VALID,93.1213,VALID,25.2649,VALID,105,VALID,0.591797,
2008-07-19, 07:31:04,VALID,1004.27,VALID,0,VALID,89.8606,VALID,94.328,VALID,25.2435,VALID,111,VALID,0.333984,
2008-07-19, 07:32:04,VALID,1004.25,VALID,0,VALID,90.2191,VALID,95.5348,VALID,25.2611,VALID,111,VALID,0.426172,
2008-07-19, 07:33:04,VALID,1004.28,VALID,0,VALID,90.3717,VALID,96.3393,VALID,25.3019,VALID,118,VALID,0.247656,
2008-07-19, 07:34:04,VALID,1004.25,VALID,0,VALID,89.9521,VALID,97.1438,VALID,25.3,VALID,147,VALID,0.826953,
2008-07-19, 07:35:04,VALID,1004.25,VALID,0,VALID,90.4327,VALID,97.9483,VALID,25.3409,VALID,146,VALID,0.527734,
2008-07-19, 07:36:04,VALID,1004.28,VALID,0,VALID,90.0818,VALID,98.9539,VALID,25.339,VALID,128,VALID,0.649609,
2008-07-19, 07:37:04,VALID,1004.31,VALID,0,VALID,89.9903,VALID,100.06,VALID,25.3798,VALID,115,VALID,0.735937,
2008-07-19, 07:38:04,VALID,1004.33,VALID,0,VALID,89.7309,VALID,101.166,VALID,25.3798,VALID,88,VALID,0.827734,
2008-07-19, 07:39:04,VALID,1004.38,VALID,0,VALID,89.6241,VALID,102.071,VALID,25.3993,VALID,110,VALID,0.773047,
2008-07-19, 07:40:04,VALID,1004.38,VALID,0,VALID,89.8224,VALID,102.775,VALID,25.4188,VALID,109,VALID,0.29375,
2008-07-19, 07:41:04,VALID,1004.43,VALID,0,VALID,89.9826,VALID,103.58,VALID,25.4363,VALID,97,VALID,0.2875,
2008-07-19, 07:42:04,VALID,1004.45,VALID,0,VALID,89.9521,VALID,104.284,VALID,25.4772,VALID,83,VALID,0.421875,
2008-07-19, 07:43:04,VALID,1004.47,VALID,0,VALID,89.9521,VALID,104.887,VALID,25.4967,VALID,91,VALID,0.348437,
2008-07-19, 07:44:04,VALID,1004.49,VALID,0,VALID,89.7538,VALID,105.088,VALID,25.4772,VALID,117,VALID,0.796484,
2008-07-19, 07:45:04,VALID,1004.53,VALID,0,VALID,90.1352,VALID,104.988,VALID,25.4967,VALID,105,VALID,0.257422,
2008-07-19, 07:46:04,VALID,1004.53,VALID,0,VALID,90.3793,VALID,104.585,VALID,25.4948,VALID,105,VALID,0,
2008-07-19, 07:47:04,VALID,1004.61,VALID,0,VALID,90.0971,VALID,104.083,VALID,25.5142,VALID,100,VALID,0.594922,
2008-07-19, 07:48:04,VALID,1004.61,VALID,0,VALID,89.6927,VALID,103.379,VALID,25.4967,VALID,66,VALID,0.707812,
2008-07-19, 07:49:04,VALID,1004.65,VALID,0,VALID,89.8758,VALID,102.373,VALID,25.5162,VALID,70,VALID,0.216797,
2008-07-19, 07:50:04,VALID,1004.65,VALID,0,VALID,89.8148,VALID,101.166,VALID,25.5142,VALID,70,VALID,0.168359,
2008-07-19, 07:51:04,VALID,1004.7,VALID,0,VALID,89.8072,VALID,100.161,VALID,25.5551,VALID,70,VALID,0.180859,
2008-07-19, 07:52:04,VALID,1004.7,VALID,0,VALID,90.0666,VALID,99.6579,VALID,25.5746,VALID,70,VALID,0.326953,
2008-07-19, 07:53:04,VALID,1004.75,VALID,0,VALID,89.8224,VALID,99.4567,VALID,25.5941,VALID,70,VALID,0.323438,
2008-07-19, 07:54:04,VALID,1004.73,VALID,0,VALID,89.6851,VALID,100.161,VALID,25.5941,VALID,117,VALID,0.617969,
2008-07-19, 07:55:04,VALID,1004.76,VALID,0,VALID,89.6927,VALID,100.664,VALID,25.6136,VALID,117,VALID,0.270312,
2008-07-19, 07:56:04,VALID,1004.76,VALID,0,VALID,89.6546,VALID,100.865,VALID,25.6136,VALID,91,VALID,0.620313,
2008-07-19, 07:57:04,VALID,1004.79,VALID,0,VALID,89.6165,VALID,100.764,VALID,25.633,VALID,83,VALID,0.394531,
2008-07-19, 07:58:04,VALID,1004.8,VALID,0,VALID,89.4486,VALID,100.563,VALID,25.633,VALID,97,VALID,0.55,
2008-07-19, 07:59:04,VALID,1004.8,VALID,0,VALID,89.3266,VALID,100.965,VALID,25.6525,VALID,122,VALID,0.536719,
2008-07-19, 08:00:04,VALID,1004.81,VALID,0,VALID,89.5325,VALID,102.273,VALID,25.67,VALID,122,VALID,0.363672,
2008-07-19, 08:01:04,VALID,1004.81,VALID,0,VALID,89.7843,VALID,104.284,VALID,25.7109,VALID,95,VALID,0.378906,
2008-07-19, 08:02:04,VALID,1004.82,VALID,0,VALID,89.6851,VALID,106.798,VALID,25.7304,VALID,95,VALID,0.441406,
2008-07-19, 08:03:04,VALID,1004.79,VALID,0,VALID,89.7004,VALID,109.714,VALID,25.7304,VALID,95,VALID,0.230859,
2008-07-19, 08:04:04,VALID,1004.86,VALID,0,VALID,89.7767,VALID,112.329,VALID,25.7694,VALID,95,VALID,0.0792969,
2008-07-19, 08:05:04,VALID,1004.83,VALID,0,VALID,89.708,VALID,114.34,VALID,25.8083,VALID,95,VALID,0.317969,
2008-07-19, 08:06:04,VALID,1004.84,VALID,0,VALID,89.6317,VALID,116.955,VALID,25.8473,VALID,95,VALID,0.0953125,
2008-07-19, 08:07:04,VALID,1004.82,VALID,0,VALID,89.5249,VALID,118.061,VALID,25.9057,VALID,95,VALID,0.182031,
2008-07-19, 08:08:04,VALID,1004.79,VALID,0,VALID,89.2426,VALID,117.357,VALID,25.9252,VALID,95,VALID,0.015625,
2008-07-19, 08:09:04,VALID,1004.77,VALID,0,VALID,89.3647,VALID,116.251,VALID,25.9836,VALID,95,VALID,0.00234375,
2008-07-19, 08:10:04,VALID,1004.78,VALID,0,VALID,88.7239,VALID,115.044,VALID,26.0226,VALID,95,VALID,0,
2008-07-19, 08:11:04,VALID,1004.75,VALID,0,VALID,88.3119,VALID,113.737,VALID,26.0226,VALID,95,VALID,0.318359,
2008-07-19, 08:12:04,VALID,1004.75,VALID,0,VALID,88.0525,VALID,110.519,VALID,26.0616,VALID,95,VALID,0.0390625,
2008-07-19, 08:13:04,VALID,1004.78,VALID,0,VALID,88.1441,VALID,107.2,VALID,26.1005,VALID,95,VALID,0,
2008-07-19, 08:14:04,VALID,1004.78,VALID,0,VALID,87.8084,VALID,105.792,VALID,26.12,VALID,95,VALID,0.0585938,
2008-07-19, 08:15:04,VALID,1004.8,VALID,0,VALID,87.7474,VALID,105.692,VALID,26.1395,VALID,95,VALID,0.364844,
2008-07-19, 08:16:04,VALID,1004.8,VALID,0,VALID,87.7474,VALID,105.289,VALID,26.1395,VALID,95,VALID,0.0820313,
2008-07-19, 08:17:04,VALID,1004.82,VALID,0,VALID,87.4575,VALID,104.485,VALID,26.1784,VALID,95,VALID,0,
2008-07-19, 08:18:04,VALID,1004.85,VALID,0,VALID,87.3507,VALID,101.166,VALID,26.1979,VALID,95,VALID,0.0652344,
2008-07-19, 08:19:04,VALID,1004.91,VALID,0,VALID,87.4727,VALID,97.7472,VALID,26.1765,VALID,96,VALID,0.45625,
2008-07-19, 08:20:04,VALID,1004.94,VALID,0,VALID,87.4575,VALID,95.032,VALID,26.159,VALID,96,VALID,0.474609,
2008-07-19, 08:21:04,VALID,1004.94,VALID,0,VALID,88.2356,VALID,92.5179,VALID,26.159,VALID,96,VALID,0.185547,
2008-07-19, 08:22:04,VALID,1004.96,VALID,0,VALID,88.5713,VALID,89.9033,VALID,26.1979,VALID,95,VALID,0.465625,
2008-07-19, 08:23:04,VALID,1004.99,VALID,0,VALID,88.1365,VALID,88.2943,VALID,26.159,VALID,73,VALID,0.50625,
2008-07-19, 08:24:04,VALID,1004.99,VALID,0,VALID,88.3882,VALID,88.3948,VALID,26.1784,VALID,71,VALID,0.614062,
2008-07-19, 08:25:04,VALID,1005.02,VALID,0,VALID,88.4874,VALID,92.2162,VALID,26.1784,VALID,82,VALID,0.542188,
2008-07-19, 08:26:04,VALID,1005.04,VALID,0,VALID,89.0824,VALID,95.4342,VALID,26.1979,VALID,112,VALID,0.379297,
2008-07-19, 08:27:04,VALID,1005.05,VALID,0,VALID,89.3266,VALID,94.328,VALID,26.1959,VALID,112,VALID,0.380859,
2008-07-19, 08:28:04,VALID,1005.04,VALID,0,VALID,89.4105,VALID,94.2275,VALID,26.2369,VALID,112,VALID,0.292969,
2008-07-19, 08:29:04,VALID,1005,VALID,0,VALID,87.8084,VALID,97.1438,VALID,26.2174,VALID,125,VALID,0.863281,
2008-07-19, 08:30:04,VALID,1005.01,VALID,0,VALID,87.3202,VALID,108.809,VALID,26.2174,VALID,144,VALID,2.06602,
2008-07-19, 08:31:04,VALID,1004.96,VALID,0,VALID,87.2591,VALID,122.586,VALID,26.2369,VALID,118,VALID,0.767969,
2008-07-19, 08:32:04,VALID,1004.93,VALID,0,VALID,88.1746,VALID,134.754,VALID,26.3148,VALID,138,VALID,0.367578,
2008-07-19, 08:33:04,VALID,1004.91,VALID,0,VALID,86.3208,VALID,146.721,VALID,26.2953,VALID,143,VALID,1.75742,
2008-07-19, 08:34:04,VALID,1004.87,VALID,0,VALID,86.7938,VALID,153.761,VALID,26.2953,VALID,121,VALID,0.889844,
2008-07-19, 08:35:04,VALID,1004.84,VALID,0,VALID,86.9006,VALID,157.783,VALID,26.3148,VALID,134,VALID,1.13711,
2008-07-19, 08:36:04,VALID,1004.81,VALID,0,VALID,86.1377,VALID,164.219,VALID,26.3148,VALID,152,VALID,0.911719,
2008-07-19, 08:37:04,VALID,1004.81,VALID,0,VALID,85.8631,VALID,170.856,VALID,26.3343,VALID,155,VALID,1.34805,
2008-07-19, 08:38:04,VALID,1004.78,VALID,0,VALID,85.5884,VALID,173.169,VALID,26.3128,VALID,153,VALID,0.9375,
2008-07-19, 08:39:04,VALID,1004.74,VALID,0,VALID,86.6031,VALID,172.667,VALID,26.3733,VALID,122,VALID,1.02617,
2008-07-19, 08:40:04,VALID,1004.75,VALID,0,VALID,85.4206,VALID,171.46,VALID,26.3733,VALID,108,VALID,0.861719,
2008-07-19, 08:41:04,VALID,1004.74,VALID,0,VALID,85.1765,VALID,169.65,VALID,26.3753,VALID,163,VALID,0.924609,
2008-07-19, 08:42:04,VALID,1004.71,VALID,0,VALID,85.9088,VALID,167.94,VALID,26.4122,VALID,177,VALID,0.852344,
2008-07-19, 08:43:04,VALID,1004.69,VALID,0,VALID,86.3132,VALID,166.231,VALID,26.4317,VALID,140,VALID,1.32227,
2008-07-19, 08:44:04,VALID,1004.68,VALID,0,VALID,84.9323,VALID,163.616,VALID,26.4317,VALID,158,VALID,1.27461,
2008-07-19, 08:45:04,VALID,1004.67,VALID,0,VALID,84.9857,VALID,158.588,VALID,26.3907,VALID,130,VALID,1.31211,
2008-07-19, 08:46:04,VALID,1004.64,VALID,0,VALID,85.596,VALID,153.861,VALID,26.4337,VALID,171,VALID,0.995313,
2008-07-19, 08:47:04,VALID,1004.65,VALID,0,VALID,84.9705,VALID,146.822,VALID,26.4317,VALID,153,VALID,1.36016,
2008-07-19, 08:48:04,VALID,1004.65,VALID,0,VALID,85.0468,VALID,141.794,VALID,26.4532,VALID,141,VALID,1.78164,
2008-07-19, 08:49:04,VALID,1004.64,VALID,0,VALID,84.6272,VALID,137.168,VALID,26.3927,VALID,144,VALID,1.74141,
2008-07-19, 08:50:04,VALID,1004.62,VALID,0,VALID,85.2833,VALID,134.955,VALID,26.3927,VALID,137,VALID,1.37773,
2008-07-19, 08:51:04,VALID,1004.64,VALID,0,VALID,85.947,VALID,133.548,VALID,26.4142,VALID,134,VALID,1.18438,
2008-07-19, 08:52:04,VALID,1004.64,VALID,0,VALID,85.3595,VALID,132.24,VALID,26.4122,VALID,146,VALID,1.29688,
2008-07-19, 08:53:04,VALID,1004.62,VALID,0,VALID,86.0156,VALID,130.732,VALID,26.4122,VALID,157,VALID,1.27539,
2008-07-19, 08:54:04,VALID,1004.6,VALID,0,VALID,86.3437,VALID,128.821,VALID,26.4337,VALID,154,VALID,1.36094,
2008-07-19, 08:55:04,VALID,1004.63,VALID,0,VALID,85.4587,VALID,126.508,VALID,26.3713,VALID,122,VALID,1.55469,
2008-07-19, 08:56:04,VALID,1004.6,VALID,0,VALID,86.2064,VALID,123.994,VALID,26.4122,VALID,157,VALID,0.83125,
2008-07-19, 08:57:04,VALID,1004.57,VALID,0,VALID,86.4505,VALID,122.184,VALID,26.4317,VALID,117,VALID,0.703516,
2008-07-19, 08:58:04,VALID,1004.55,VALID,0,VALID,86.0385,VALID,121.279,VALID,26.4337,VALID,146,VALID,0.758984,
2008-07-19, 08:59:04,VALID,1004.52,VALID,0,VALID,86.0538,VALID,121.078,VALID,26.4122,VALID,130,VALID,1.21992,
2008-07-19, 09:00:04,VALID,1004.53,VALID,0,VALID,85.9775,VALID,120.575,VALID,26.3538,VALID,138,VALID,0.725391,
2008-07-19, 09:01:04,VALID,1004.53,VALID,0,VALID,86.6793,VALID,120.374,VALID,26.3343,VALID,127,VALID,1.18164,
2008-07-19, 09:02:04,VALID,1004.53,VALID,0,VALID,86.9464,VALID,119.972,VALID,26.2973,VALID,126,VALID,1.12578,
2008-07-19, 09:03:04,VALID,1004.52,VALID,0,VALID,88.1059,VALID,118.865,VALID,26.2564,VALID,151,VALID,0.764844,
2008-07-19, 09:04:04,VALID,1004.52,VALID,0,VALID,87.2134,VALID,118.161,VALID,26.2389,VALID,138,VALID,1.51367,
2008-07-19, 09:05:04,VALID,1004.5,VALID,0,VALID,87.8084,VALID,117.357,VALID,26.1804,VALID,131,VALID,0.939844,
2008-07-19, 09:06:04,VALID,1004.52,VALID,0,VALID,88.2738,VALID,116.351,VALID,26.1804,VALID,141,VALID,0.792188,
2008-07-19, 09:07:04,VALID,1004.5,VALID,0,VALID,87.5185,VALID,115.245,VALID,26.122,VALID,151,VALID,0.802734,
2008-07-19, 09:08:04,VALID,1004.5,VALID,0,VALID,88.5789,VALID,113.938,VALID,26.1415,VALID,124,VALID,0.669141,
2008-07-19, 09:09:04,VALID,1004.51,VALID,0,VALID,88.1899,VALID,112.429,VALID,26.081,VALID,131,VALID,0.931641,
2008-07-19, 09:10:04,VALID,1004.54,VALID,0,VALID,88.9222,VALID,111.625,VALID,26.081,VALID,141,VALID,0.763672,
2008-07-19, 09:11:04,VALID,1004.54,VALID,0,VALID,89.3723,VALID,109.915,VALID,26.122,VALID,140,VALID,0.773047,
2008-07-19, 09:12:04,VALID,1004.53,VALID,0,VALID,89.2808,VALID,109.211,VALID,26.081,VALID,132,VALID,0.610937,
2008-07-19, 09:13:04,VALID,1004.58,VALID,0,VALID,89.6775,VALID,109.614,VALID,26.0616,VALID,132,VALID,0.582422,
2008-07-19, 09:14:04,VALID,1004.58,VALID,0,VALID,89.4563,VALID,110.116,VALID,26.0616,VALID,173,VALID,0.758594,
2008-07-19, 09:15:04,VALID,1004.62,VALID,0,VALID,89.7767,VALID,111.524,VALID,26.0635,VALID,134,VALID,0.541016,
2008-07-19, 09:16:04,VALID,1004.63,VALID,0,VALID,89.4791,VALID,113.334,VALID,26.0226,VALID,140,VALID,0.726563,
2008-07-19, 09:17:04,VALID,1004.65,VALID,0,VALID,89.6927,VALID,115.949,VALID,26.0031,VALID,155,VALID,0.537109,
2008-07-19, 09:18:04,VALID,1004.64,VALID,0,VALID,89.7233,VALID,120.173,VALID,26.0051,VALID,148,VALID,0.789453,
2008-07-19, 09:19:04,VALID,1004.63,VALID,0,VALID,90.3412,VALID,124.799,VALID,26.0246,VALID,127,VALID,0.767187,
2008-07-19, 09:20:04,VALID,1004.62,VALID,0,VALID,89.9826,VALID,132.039,VALID,25.9836,VALID,107,VALID,0.571484,
2008-07-19, 09:21:04,VALID,1004.6,VALID,0,VALID,90.5396,VALID,141.291,VALID,26.0031,VALID,136,VALID,0.478906,
2008-07-19, 09:22:04,VALID,1004.58,VALID,0,VALID,90.5167,VALID,148.934,VALID,26.0031,VALID,136,VALID,0.473047,
2008-07-19, 09:23:04,VALID,1004.6,VALID,0,VALID,90.3259,VALID,153.861,VALID,26.0051,VALID,131,VALID,0.424219,
2008-07-19, 09:24:04,VALID,1004.6,VALID,0,VALID,90.3107,VALID,154.364,VALID,26.0031,VALID,132,VALID,0.454688,
2008-07-19, 09:25:04,VALID,1004.61,VALID,0.5,VALID,90.8447,VALID,156.074,VALID,26.0226,VALID,155,VALID,0.813672,
2008-07-19, 09:26:04,VALID,1004.63,VALID,0,VALID,91.1575,VALID,168.242,VALID,26.083,VALID,154,VALID,0.510156,
2008-07-19, 09:27:04,VALID,1004.68,VALID,0,VALID,91.0202,VALID,188.556,VALID,26.081,VALID,111,VALID,0.668359,
2008-07-19, 09:28:04,VALID,1004.63,VALID,0,VALID,90.8905,VALID,208.769,VALID,26.1415,VALID,110,VALID,0.516016,
2008-07-19, 09:29:04,VALID,1004.65,VALID,0,VALID,91.1575,VALID,230.691,VALID,26.12,VALID,120,VALID,0.522656,
2008-07-19, 09:30:04,VALID,1004.68,VALID,0,VALID,91.0202,VALID,245.172,VALID,26.159,VALID,113,VALID,0.580469,
2008-07-19, 09:31:04,VALID,1004.69,VALID,0,VALID,90.9973,VALID,257.642,VALID,26.1784,VALID,110,VALID,0.465625,
2008-07-19, 09:32:04,VALID,1004.69,VALID,0,VALID,91.3177,VALID,265.386,VALID,26.2174,VALID,109,VALID,0.355859,
2008-07-19, 09:33:04,VALID,1004.73,VALID,0,VALID,90.9744,VALID,265.989,VALID,26.2778,VALID,115,VALID,1.43906,
2008-07-19, 09:34:04,VALID,1004.71,VALID,0,VALID,89.7767,VALID,271.419,VALID,26.2369,VALID,133,VALID,1.34766,
2008-07-19, 09:35:04,VALID,1004.72,VALID,0,VALID,90.1123,VALID,277.051,VALID,26.2564,VALID,139,VALID,1.32578,
2008-07-19, 09:36:04,VALID,1004.7,VALID,0,VALID,90.3031,VALID,287.007,VALID,26.2778,VALID,130,VALID,1.04023,
2008-07-19, 09:37:04,VALID,1004.68,VALID,0,VALID,89.8148,VALID,298.974,VALID,26.2759,VALID,136,VALID,1.12734,
2008-07-19, 09:38:04,VALID,1004.67,VALID,0,VALID,91.0049,VALID,309.13,VALID,26.3343,VALID,133,VALID,0.89375,
2008-07-19, 09:39:04,VALID,1004.68,VALID,0,VALID,89.5402,VALID,315.265,VALID,26.3558,VALID,125,VALID,1.09922,
2008-07-19, 09:40:04,VALID,1004.65,VALID,0,VALID,89.1282,VALID,317.075,VALID,26.3538,VALID,129,VALID,0.702344,
2008-07-19, 09:41:04,VALID,1004.69,VALID,0,VALID,89.3418,VALID,306.415,VALID,26.4102,VALID,124,VALID,1.14609,
2008-07-19, 09:42:04,VALID,1004.67,VALID,0,VALID,89.5249,VALID,289.923,VALID,26.4512,VALID,138,VALID,1.28086,
2008-07-19, 09:43:04,VALID,1004.67,VALID,0,VALID,87.7398,VALID,280.973,VALID,26.4337,VALID,128,VALID,2.04375,
2008-07-19, 09:44:04,VALID,1004.71,VALID,0,VALID,89.6622,VALID,283.386,VALID,26.4317,VALID,158,VALID,1.58672,
2008-07-19, 09:45:04,VALID,1004.71,VALID,0,VALID,88.5713,VALID,285.8,VALID,26.4122,VALID,156,VALID,1.42891,
2008-07-19, 09:46:04,VALID,1004.72,VALID,0,VALID,89.6775,VALID,294.851,VALID,26.4707,VALID,174,VALID,1.28047,
2008-07-19, 09:47:04,VALID,1004.73,VALID,0,VALID,89.0519,VALID,317.075,VALID,26.4707,VALID,128,VALID,1.31367,
2008-07-19, 09:48:04,VALID,1004.7,VALID,0,VALID,89.174,VALID,332.763,VALID,26.4901,VALID,151,VALID,1.3168,
2008-07-19, 09:49:04,VALID,1004.72,VALID,0,VALID,88.228,VALID,367.558,VALID,26.4317,VALID,145,VALID,1.23633,
2008-07-19, 09:50:04,VALID,1004.74,VALID,0,VALID,88.8993,VALID,417.135,VALID,26.4297,VALID,138,VALID,1.45977,
2008-07-19, 09:51:04,VALID,1004.75,VALID,0,VALID,89.6775,VALID,466.713,VALID,26.5291,VALID,118,VALID,1.20977,
2008-07-19, 09:52:04,VALID,1004.76,VALID,0,VALID,89.3418,VALID,479.685,VALID,26.6091,VALID,123,VALID,1.5125,
2008-07-19, 09:53:04,VALID,1004.73,VALID,0,VALID,89.1435,VALID,500.803,VALID,26.646,VALID,122,VALID,1.28984,
2008-07-19, 09:54:04,VALID,1004.73,VALID,0,VALID,89.1587,VALID,554.705,VALID,26.7629,VALID,163,VALID,1.20078,
2008-07-19, 09:55:04,VALID,1004.79,VALID,0,VALID,89.7843,VALID,450.623,VALID,26.8993,VALID,144,VALID,0.669141,
2008-07-19, 09:56:04,VALID,1004.72,VALID,0,VALID,87.6787,VALID,428.197,VALID,26.8993,VALID,138,VALID,1.73086,
2008-07-19, 09:57:04,VALID,1004.73,VALID,0,VALID,88.7162,VALID,413.414,VALID,26.9013,VALID,122,VALID,1.2168,
2008-07-19, 09:58:04,VALID,1004.77,VALID,0,VALID,88.8612,VALID,423.973,VALID,26.9383,VALID,135,VALID,0.702734,
2008-07-19, 09:59:04,VALID,1004.75,VALID,0,VALID,89.38,VALID,436.644,VALID,27.1352,VALID,126,VALID,1.00508,
2008-07-19, 10:00:04,VALID,1004.8,VALID,0,VALID,86.7938,VALID,449.516,VALID,27.1136,VALID,104,VALID,0.821875,
2008-07-19, 10:01:04,VALID,1004.77,VALID,0,VALID,87.343,VALID,428.197,VALID,27.1721,VALID,88,VALID,0.952734,
2008-07-19, 10:02:04,VALID,1004.8,VALID,0,VALID,87.4499,VALID,402.151,VALID,27.2675,VALID,127,VALID,0.769141,
2008-07-19, 10:03:04,VALID,1004.8,VALID,0,VALID,86.1377,VALID,377.513,VALID,27.3454,VALID,175,VALID,1.82617,
2008-07-19, 10:04:04,VALID,1004.77,VALID,0,VALID,84.7187,VALID,369.267,VALID,27.4039,VALID,102,VALID,1.83867,
2008-07-19, 10:05:04,VALID,1004.78,VALID,0,VALID,84.2457,VALID,363.233,VALID,27.328,VALID,132,VALID,1.52148,
2008-07-19, 10:06:04,VALID,1004.73,VALID,0,VALID,85.1002,VALID,351.467,VALID,27.3064,VALID,117,VALID,1.04219,
2008-07-19, 10:07:04,VALID,1004.71,VALID,0,VALID,84.9018,VALID,367.658,VALID,27.328,VALID,145,VALID,0.997656,
2008-07-19, 10:08:04,VALID,1004.71,VALID,0,VALID,87.4651,VALID,394.609,VALID,27.4428,VALID,137,VALID,1.08672,
2008-07-19, 10:09:04,VALID,1004.69,VALID,0,VALID,84.589,VALID,409.895,VALID,27.5229,VALID,128,VALID,1.15703,
2008-07-19, 10:10:04,VALID,1004.68,VALID,0,VALID,84.4364,VALID,439.862,VALID,27.4818,VALID,135,VALID,1.28203,
2008-07-19, 10:11:04,VALID,1004.66,VALID,0,VALID,84.0474,VALID,530.671,VALID,27.5424,VALID,149,VALID,1.12148,
2008-07-19, 10:12:04,VALID,1004.66,VALID,0,VALID,82.0257,VALID,509.351,VALID,27.5229,VALID,84,VALID,1.27461,
2008-07-19, 10:13:04,VALID,1004.65,VALID,0,VALID,83.9101,VALID,447.606,VALID,27.6008,VALID,108,VALID,0.822656,
2008-07-19, 10:14:04,VALID,1004.66,VALID,0,VALID,85.062,VALID,566.773,VALID,27.7762,VALID,127,VALID,0.772266,
2008-07-19, 10:15:04,VALID,1004.64,VALID,0,VALID,81.9876,VALID,497.083,VALID,27.7546,VALID,168,VALID,1.51641,
2008-07-19, 10:16:04,VALID,1004.62,VALID,0,VALID,81.7282,VALID,525.24,VALID,27.7178,VALID,167,VALID,1.46602,
2008-07-19, 10:17:04,VALID,1004.62,VALID,0,VALID,82.7047,VALID,460.478,VALID,27.6593,VALID,130,VALID,0.803906,
2008-07-19, 10:18:04,VALID,1004.61,VALID,0,VALID,82.781,VALID,432.119,VALID,27.7394,VALID,144,VALID,1.16641,
2008-07-19, 10:19:04,VALID,1004.56,VALID,0,VALID,81.5298,VALID,490.043,VALID,27.7567,VALID,126,VALID,0.229687,
2008-07-19, 10:20:04,VALID,1004.6,VALID,0,VALID,83.0098,VALID,438.756,VALID,27.9538,VALID,192,VALID,1.36992,
2008-07-19, 10:21:04,VALID,1004.57,VALID,0,VALID,80.8814,VALID,471.439,VALID,27.9927,VALID,165,VALID,1.58984,
2008-07-19, 10:22:04,VALID,1004.58,VALID,0,VALID,81.9037,VALID,554.202,VALID,27.9733,VALID,179,VALID,0.902344,
2008-07-19, 10:23:04,VALID,1004.57,VALID,0,VALID,80.4084,VALID,712.69,VALID,28.0317,VALID,202,VALID,1.28203,
2008-07-19, 10:24:04,VALID,1004.54,VALID,0,VALID,80.6983,VALID,702.03,VALID,28.0902,VALID,188,VALID,1.10312,
2008-07-19, 10:25:04,VALID,1004.55,VALID,0,VALID,82.0028,VALID,630.63,VALID,28.0902,VALID,150,VALID,1.54961,
2008-07-19, 10:26:04,VALID,1004.56,VALID,0,VALID,78.0511,VALID,694.287,VALID,28.0881,VALID,125,VALID,0.940625,
2008-07-19, 10:27:04,VALID,1004.51,VALID,0,VALID,78.1121,VALID,754.222,VALID,28.1682,VALID,142,VALID,0.401563,
2008-07-19, 10:28:04,VALID,1004.5,VALID,0,VALID,78.4554,VALID,788.212,VALID,28.2851,VALID,159,VALID,1.20664,
2008-07-19, 10:29:04,VALID,1004.49,VALID,0,VALID,77.1738,VALID,576.93,VALID,28.3241,VALID,159,VALID,0.667969,
2008-07-19, 10:30:04,VALID,1004.49,VALID,0,VALID,78.936,VALID,389.078,VALID,28.3415,VALID,146,VALID,1.29922,
2008-07-19, 10:31:04,VALID,1004.48,VALID,0,VALID,80.0727,VALID,385.558,VALID,28.2462,VALID,134,VALID,1.60078,
2008-07-19, 10:32:04,VALID,1004.47,VALID,0,VALID,79.3251,VALID,540.425,VALID,28.1877,VALID,167,VALID,2.15586,
2008-07-19, 10:33:04,VALID,1004.5,VALID,0,VALID,80.889,VALID,733.607,VALID,28.2267,VALID,136,VALID,1.05547,
2008-07-19, 10:34:04,VALID,1004.52,VALID,0,VALID,78.7834,VALID,739.741,VALID,28.2656,VALID,107,VALID,1.77852,
2008-07-19, 10:35:04,VALID,1004.53,VALID,0,VALID,80.1414,VALID,706.656,VALID,28.3046,VALID,88,VALID,0.839063,
2008-07-19, 10:36:04,VALID,1004.53,VALID,0,VALID,78.2494,VALID,735.417,VALID,28.4801,VALID,97,VALID,1.18438,